Погода в Среднерейновском

Россия / Амурская область     53°41′09″N   123°50′17″E
темп.,
°C
ветер,
м/с
пор.,
м/с
влажн.,
%
обл.,
%
осадки,
мм/ч
давл.,
гПа
погр.,
м
19 мая, ср
ср1900:00+2с2240100 0.0 100644
03:00−1с2162100 0.0 100714
06:00+1ссв126253 0.1 100788
09:00+8юв223712 0.2 1005758
12:00+12ююз3526100 0.0 10032724
15:00+14юз1422100 0.0 10012862
18:00+12юв4536100 0.0 10002079
21:00+5вюв4790100 1.3 1002676
20 мая, чт
чт2000:00+4в3895100 0.4 1002445
03:00+3с2397100 0.6 1002449
06:00+3ссз359098 0.0 1004479
09:00+7з237537 0.0 1004604
12:00+13зюз2547100 0.0 10031495
15:00+16з3525100 0.0 10022743
18:00+13ссз2436100 0.0 1004323
21:00+9ю1153100 0.1 100615
21 мая, пт
пт2100:00+6св1190100 1.3 100821
03:00+5ссв1294100 2.4 1008108
06:00+5св3892100 0.3 1009618
09:00+10св4530100 0.0 10121209
12:00+11св3421100 0.0 10101874
15:00+6св4663100 0.8 1014876
18:00+4в3978100 0.3 1013622
21:00+4в2985100 0.3 1013445
22 мая, сб
сб2200:00+4вюв31087100 0.4 1012636
03:00+4в41290100 1.0 1009734
06:00+3вюв51394100 2.4 1008733
09:00+5вюв61590100 3.4 1004746
12:00+9вюв61168100 0.0 10001157
15:00+13вюв51056100 0.0 9971459
18:00+9всв3689100 1.1 996248
21:00+8ссз2396100 1.3 99696
23 мая, вс
вс2300:00+6зсз2497100 0.0 996223
03:00+5зсз3895100 0.0 996394
06:00+5юз2595100 0.2 995243
09:00+5зюз479492 2.4 995484
12:00+11з4659100 0.1 9941354
15:00+12з4647100 0.1 9931868
18:00+11зсз474884 0.0 9931830
21:00+5сз25747 0.0 99493